Location: Jackson
(42.2460°N, 84.4010°W)
Time: 18:22:03
(UTC-04:00)

Courier 1B Rocket - Pass Details

Date: 08 February 2026
Orbit: 920 x 1201 km, 28.2° (Epoch: 12 March)

Event Time Altitude Azimuth Distance (km) Brightness Sun altitude
Rises 22:38:43 0° 214° (SW) 3,736 - -50.3°
Reaches altitude 10° 22:42:31 10° 194° (SSW) 2,846 - -50.9°
Maximum altitude 22:46:29 16° 158° (SSE) 2,491 - -51.5°
Drops below altitude 10° 22:50:35 10° 124° (ESE) 2,971 - -52.1°
Sets 22:54:41 0° 104° (ESE) 3,987 - -52.7°
